KLAN

Capital Region International Airport

Airport
ICAO code
KLAN
Summary
ICAO Region
NAM
ICAO Territory
Location

Lansing, Michigan,

Coordinates
42° 46' 30" N , 84° 35' 22" W
KCC
Airport CFIT
Altimeter Temperature Error Correction
Airport LOS
Parallel Runway Operation
Airport WX
Cumulonimbus
Metar
Observation
KLAN 302101Z 29012KT 10SM BKN028 OVC070 M08/M13 A3026 RMK AO2 T10781133
Station
Lansing, Capital City Airport
Date/Time
2023-01-30 21:01:00
Wind direction
290°
Wind speed
12 kts
Lowest cloud amount
broken clouds
Temperature
-7.8°C
Dew point
-13.3°C
Humidity
64%
Weather condition
n/a

Description

Capital Region International Airport, formerly known as Lansing Capital City Airport, is a public airport located 5 km northwest of downtown Lansing in DeWitt Township, Michigan.

Climatology

Humid Continental climate (Köppen climate classification Dfb) - Variable weather patterns and a large seasonal temperature variance. Summers are often warm and humid with frequent thunderstorms and winters can be very cold with frequent snowfall and persistent snow cover.

Runways

Designator Length Width Surface Rops
10L/28R 1098 23 ASP Yes/Yes
6/24 1524 37 PEM Yes/Yes
10R/28L 2210 46 ASP Yes/Yes

Airport map

Aerial View

SKYbrary Partners:

Safety knowledge contributed by: